• In Deutschland
  • Länderverzeichnis
  • Für 7 Tage
  • Wassertemperatur
  • Satellitenkarten
  • Wetterkarte
  • Widgets
  • user-avatar
    Anmelden

    Stündliche Wetter Ghanzi

    Heute, 19 Oktober, Freitag

    Zeit Temperatur Niederschläge Wind Luftdruck Luftfeuchtigkeit
    00:00 +30°C° 0 mm 2 m/S 714 mmHg 17%
    01:00 +30°C° 0 mm 3 m/S 714 mmHg 17%
    02:00 +29°C° 0 mm 3 m/S 714 mmHg 18%
    03:00 +29°C° 0 mm 3 m/S 714 mmHg 19%
    04:00 +28°C° 0 mm 2 m/S 714 mmHg 20%
    05:00 +28°C° 0 mm 2 m/S 714 mmHg 20%
    06:00 +29°C° 0 mm 2 m/S 715 mmHg 19%
    07:00 +30°C° 0 mm 2 m/S 715 mmHg 19%
    08:00 +31°C° 0 mm 3 m/S 715 mmHg 17%
    09:00 +34°C° 0 mm 3 m/S 716 mmHg 15%
    10:00 +36°C° 0 mm 4 m/S 716 mmHg 14%
    11:00 +37°C° 0 mm 3 m/S 716 mmHg 13%
    12:00 +38°C° 0 mm 3 m/S 715 mmHg 12%
    13:00 +39°C° 0 mm 3 m/S 715 mmHg 12%
    14:00 +39°C° 0 mm 2 m/S 715 mmHg 12%
    15:00 +38°C° 0 mm 2 m/S 714 mmHg 12%
    16:00 +38°C° 0 mm 2 m/S 714 mmHg 11%
    17:00 +36°C° 0 mm 1 m/S 714 mmHg 13%
    18:00 +34°C° 0 mm 1 m/S 714 mmHg 14%
    19:00 +33°C° 0 mm 1 m/S 714 mmHg 16%
    20:00 +32°C° 0 mm 2 m/S 715 mmHg 16%
    21:00 +32°C° 0 mm 2 m/S 715 mmHg 16%
    22:00 +32°C° 0 mm 2 m/S 715 mmHg 17%
    23:00 +31°C° 0 mm 2 m/S 715 mmHg 17%

    Morgen, 20 Oktober, Samstag

    Zeit Temperatur Niederschläge Wind Luftdruck Luftfeuchtigkeit
    00:00 +31°C° 0 mm 3 m/S 715 mmHg 17%
    01:00 +31°C° 0 mm 3 m/S 714 mmHg 18%
    02:00 +30°C° 0 mm 3 m/S 714 mmHg 19%
    03:00 +29°C° 0 mm 2 m/S 714 mmHg 20%
    04:00 +28°C° 0 mm 2 m/S 714 mmHg 21%
    05:00 +29°C° 0 mm 2 m/S 714 mmHg 20%
    06:00 +30°C° 0 mm 2 m/S 715 mmHg 19%
    07:00 +30°C° 0 mm 2 m/S 715 mmHg 19%
    08:00 +33°C° 0 mm 3 m/S 716 mmHg 17%
    09:00 +35°C° 0 mm 3 m/S 716 mmHg 15%
    10:00 +37°C° 0 mm 4 m/S 716 mmHg 13%
    11:00 +38°C° 0 mm 4 m/S 716 mmHg 13%
    12:00 +39°C° 0 mm 3 m/S 715 mmHg 12%
    13:00 +40°C° 0 mm 3 m/S 715 mmHg 11%
    14:00 +40°C° 0 mm 2 m/S 715 mmHg 11%
    15:00 +40°C° 0 mm 1 m/S 714 mmHg 11%
    16:00 +39°C° 0 mm 1 m/S 714 mmHg 11%
    17:00 +37°C° 0 mm 1 m/S 714 mmHg 12%
    18:00 +37°C° 0 mm 2 m/S 714 mmHg 13%
    19:00 +35°C° 0 mm 2 m/S 714 mmHg 14%
    20:00 +34°C° 0 mm 2 m/S 715 mmHg 15%
    21:00 +34°C° 0 mm 2 m/S 715 mmHg 16%
    22:00 +32°C° 0 mm 2 m/S 715 mmHg 17%
    23:00 +31°C° 0 mm 3 m/S 715 mmHg 19%

    übermorgen, 21 Oktober, Sonntag

    Zeit Temperatur Niederschläge Wind Luftdruck Luftfeuchtigkeit
    00:00 +31°C° 0 mm 3 m/S 715 mmHg 21%
    01:00 +30°C° 0 mm 4 m/S 715 mmHg 22%
    02:00 +29°C° 0 mm 4 m/S 715 mmHg 24%
    03:00 +29°C° 0 mm 4 m/S 715 mmHg 26%
    04:00 +28°C° 0 mm 4 m/S 714 mmHg 28%
    05:00 +28°C° 0 mm 5 m/S 715 mmHg 28%
    06:00 +28°C° 0 mm 5 m/S 715 mmHg 28%
    07:00 +28°C° 0 mm 5 m/S 716 mmHg 27%
    08:00 +30°C° 0 mm 5 m/S 716 mmHg 24%
    09:00 +33°C° 0 mm 5 m/S 716 mmHg 22%
    10:00 +34°C° 0 mm 4 m/S 717 mmHg 19%
    11:00 +35°C° 0 mm 4 m/S 716 mmHg 17%
    12:00 +36°C° 0 mm 3 m/S 715 mmHg 15%
    13:00 +37°C° 0 mm 3 m/S 715 mmHg 14%
    14:00 +37°C° 0 mm 3 m/S 714 mmHg 14%
    15:00 +37°C° 0 mm 3 m/S 714 mmHg 13%
    16:00 +37°C° 0 mm 3 m/S 714 mmHg 13%
    17:00 +36°C° 0 mm 3 m/S 714 mmHg 14%
    18:00 +35°C° 0 mm 4 m/S 714 mmHg 16%
    19:00 +33°C° 0 mm 4 m/S 715 mmHg 17%
    20:00 +32°C° 0 mm 4 m/S 715 mmHg 19%
    21:00 +32°C° 0 mm 5 m/S 715 mmHg 20%
    22:00 +30°C° 0 mm 5 m/S 716 mmHg 22%
    23:00 +29°C° 0 mm 5 m/S 715 mmHg 24%

    22 Oktober, Montag

    Zeit Temperatur Niederschläge Wind Luftdruck Luftfeuchtigkeit
    00:00 +28°C° 0 mm 5 m/S 715 mmHg 25%
    01:00 +27°C° 0 mm 5 m/S 715 mmHg 27%
    02:00 +26°C° 0 mm 5 m/S 715 mmHg 29%
    03:00 +26°C° 0 mm 5 m/S 714 mmHg 31%
    04:00 +25°C° 0 mm 4 m/S 714 mmHg 33%
    05:00 +25°C° 0 mm 4 m/S 715 mmHg 34%
    06:00 +26°C° 0 mm 5 m/S 715 mmHg 35%
    07:00 +26°C° 0 mm 5 m/S 716 mmHg 36%
    08:00 +28°C° 0 mm 5 m/S 716 mmHg 32%
    09:00 +29°C° 0 mm 5 m/S 716 mmHg 29%
    10:00 +32°C° 0 mm 5 m/S 717 mmHg 25%
    11:00 +33°C° 0 mm 4 m/S 716 mmHg 23%
    12:00 +34°C° 0 mm 4 m/S 715 mmHg 21%
    13:00 +35°C° 0 mm 4 m/S 715 mmHg 18%
    14:00 +35°C° 0 mm 4 m/S 714 mmHg 18%
    15:00 +35°C° 0 mm 4 m/S 714 mmHg 17%
    16:00 +35°C° 0 mm 4 m/S 714 mmHg 17%
    17:00 +34°C° 0 mm 4 m/S 714 mmHg 18%
    18:00 +33°C° 0 mm 4 m/S 715 mmHg 19%
    19:00 +32°C° 0 mm 4 m/S 715 mmHg 20%
    20:00 +30°C° 0 mm 4 m/S 715 mmHg 21%
    21:00 +29°C° 0 mm 4 m/S 715 mmHg 23%
    22:00 +29°C° 0 mm 4 m/S 715 mmHg 24%
    23:00 +28°C° 0 mm 4 m/S 715 mmHg 26%

    23 Oktober, Dienstag

    Zeit Temperatur Niederschläge Wind Luftdruck Luftfeuchtigkeit
    00:00 +27°C° 0 mm 3 m/S 714 mmHg 28%
    01:00 +26°C° 0 mm 3 m/S 714 mmHg 30%
    02:00 +26°C° 0 mm 3 m/S 714 mmHg 31%
    03:00 +26°C° 0 mm 3 m/S 714 mmHg 33%
    04:00 +25°C° 0 mm 3 m/S 714 mmHg 34%
    05:00 +26°C° 0 mm 4 m/S 715 mmHg 34%
    06:00 +26°C° 0 mm 4 m/S 715 mmHg 34%
    07:00 +26°C° 0 mm 5 m/S 716 mmHg 34%
    08:00 +28°C° 0 mm 4 m/S 716 mmHg 31%
    09:00 +30°C° 0 mm 4 m/S 716 mmHg 27%
    10:00 +33°C° 0 mm 3 m/S 716 mmHg 23%
    11:00 +34°C° 0 mm 3 m/S 716 mmHg 22%
    12:00 +34°C° 0 mm 3 m/S 715 mmHg 20%
    13:00 +35°C° 0 mm 2 m/S 714 mmHg 19%
    14:00 +35°C° 0 mm 2 m/S 714 mmHg 19%
    15:00 +35°C° 0 mm 2 m/S 714 mmHg 19%
    16:00 +36°C° 0 mm 2 m/S 714 mmHg 18%
    17:00 +34°C° 0 mm 2 m/S 714 mmHg 20%
    18:00 +32°C° 0 mm 2 m/S 714 mmHg 21%
    19:00 +31°C° 0 mm 2 m/S 714 mmHg 23%
    20:00 +31°C° 0 mm 3 m/S 714 mmHg 23%
    21:00 +30°C° 0 mm 3 m/S 714 mmHg 24%
    22:00 +29°C° 0 mm 3 m/S 714 mmHg 25%
    23:00 +29°C° 0 mm 3 m/S 714 mmHg 26%

    24 Oktober, Mittwoch

    Zeit Temperatur Niederschläge Wind Luftdruck Luftfeuchtigkeit
    00:00 +28°C° 0 mm 3 m/S 714 mmHg 27%
    01:00 +27°C° 0 mm 4 m/S 714 mmHg 28%
    02:00 +27°C° 0 mm 4 m/S 714 mmHg 30%
    03:00 +26°C° 0 mm 4 m/S 714 mmHg 31%
    04:00 +26°C° 0 mm 4 m/S 714 mmHg 33%
    05:00 +26°C° 0 mm 4 m/S 714 mmHg 33%
    06:00 +26°C° 0 mm 4 m/S 715 mmHg 32%
    07:00 +27°C° 0 mm 4 m/S 715 mmHg 32%
    08:00 +28°C° 0 mm 4 m/S 715 mmHg 29%
    09:00 +30°C° 0 mm 4 m/S 716 mmHg 26%
    10:00 +33°C° 0 mm 4 m/S 716 mmHg 23%
    11:00 +34°C° 0 mm 3 m/S 715 mmHg 22%
    12:00 +35°C° 0 mm 2 m/S 714 mmHg 20%
    13:00 +35°C° 0 mm 1 m/S 713 mmHg 19%
    14:00 +35°C° 0 mm 1 m/S 713 mmHg 18%
    15:00 +35°C° 0 mm 1 m/S 713 mmHg 18%
    16:00 +35°C° 0 mm 1 m/S 713 mmHg 17%
    17:00 +34°C° 0 mm 1 m/S 713 mmHg 19%
    18:00 +34°C° 0 mm 2 m/S 713 mmHg 20%
    19:00 +32°C° 0 mm 2 m/S 713 mmHg 22%
    20:00 +31°C° 0 mm 2 m/S 713 mmHg 23%
    21:00 +31°C° 0 mm 3 m/S 713 mmHg 23%
    22:00 +30°C° 0 mm 3 m/S 713 mmHg 24%
    23:00 +29°C° 0 mm 3 m/S 713 mmHg 25%
    Mehr zeigen